Regional Weather Roundup
Issued by NWS Nashville, TN

Home | Current Version | Previous Version | Text Only | Print | Product List | Glossary On
Versions: 1 2 3 4 5 6 7 8 9 10 11 12 13 14 15 16 17 18 19 20 21 22 23 24 25 26 27 28 29 30 31 32 33 34 35 36 37 38 39 40 41 42 43 44 45 46 47 48 49 50
000
ASUS44 KOHX 192315
RWROHX
MIDDLE TENNESSEE HOURLY WEATHER ROUNDUP
NATIONAL WEATHER SERVICE NASHVILLE TN
500 PM CST FRI DEC 19 2014

NOTE: "FAIR" INDICATES FEW OR NO CLOUDS BELOW 12,000 FEET WITH
NO SIGNIFICANT WEATHER AND/OR OBSTRUCTIONS TO VISIBILITY.

* THESE REPORTS ARE NOT UNDER NWS QUALITY CONTROL AND MAY NOT
  REPORT WEATHER SUCH AS PRECIPITATION AND FOG.


TNZ005>011-023>034-057-059-062>066-078-080-200000
...NORTHERN MIDDLE TENNESSEE...

CITY           SKY/WX    TMP DP  RH WIND       PRES   REMARKS
CLARKSVILLE    CLEAR     37  29  72 CALM      30.25S
CROSSVILLE     CLOUDY    38  24  57 N5        30.18R WCI  34
GALLATIN         N/A     36  28  73 N3        30.25R
DICKSON        CLEAR     37  28  70 NE3       30.22R
LEBANON        MOCLDY    37  27  68 CALM      30.22R
LIVINGSTON     CLOUDY    33  29  86 N5        30.21R WCI  28
NASHVILLE      MOCLDY    39  29  67 N8        30.24S WCI  33
WEST NASHVILLE   N/A     37  28  70 N6        30.24S WCI  33
PORTLAND       MOCLDY    34  27  75 N3        30.23R
SMYRNA         CLOUDY    38  29  70 NE3       30.25S
SPARTA         CLEAR     36  28  75 N3        30.20R
$$
TNZ056-058-060-061-075>077-079-093>097-200000
...SOUTHERN MIDDLE TENNESSEE...

CITY           SKY/WX    TMP DP  RH WIND       PRES   REMARKS
LEWISBURG      MOCLDY    37  27  68 N3        30.21S
MCMINNVILLE    CLEAR     37  28  70 CALM      30.20S
MURFREESBORO   CLOUDY    39  29  68 N5        30.23F
SHELBYVILLE    CLEAR     37  30  75 N6        30.22S WCI  33
TULLAHOMA      CLEAR     36  27  69 N7        30.19S WCI  30
WINCHESTER     CLEAR     37  27  65 N6        30.19S WCI  33
$$


...KEY TO REMARKS...
VSB - VISIBILITY IN MILES
WCI - WIND CHILL INDEX
HX  - HEAT INDEX



USA.gov is the U.S. government's official web portal to all federal, state and local government web resources and services.